Regional Weather Roundup
Issued by NWS

Home | Current Version | Previous Version | Text Only | Print | Product List | Glossary On
Versions: 1 2 3 4 5 6 7 8 9 10 11 12 13 14 15 16 17 18 19 20 21 22 23 24 25 26 27 28 29 30 31 32 33 34 35 36 37 38 39 40 41 42 43 44 45 46 47 48 49 50
000
ASUS45 KBOI 290210
RWRID
WEATHER ROUNDUP FOR IDAHO
NATIONAL WEATHER SERVICE BOISE ID
700 PM MST SUN DEC 28 2014

NOTE: "FAIR" INDICATES FEW OR NO CLOUDS BELOW 12000 FEET
WITH NO SIGNIFICANT WEATHER AND/OR OBSTRUCTIONS TO VISIBILITY

IDZ012-014-290300-
SOUTHWEST IDAHO


CITY           SKY/WX    TMP DP  RH WIND       PRES   REMARKS
BOISE          CLOUDY    30  28  93 CALM      30.09R FOG
CALDWELL       CLOUDY    28  21  74 S3        30.12S VSB 1/2
MOUNTAIN HOME  MOCLDY    28  26  93 NW5       30.08S WCI  23
$$

IDZ016-017-290300-
SOUTHCENTRAL IDAHO


CITY           SKY/WX    TMP DP  RH WIND       PRES   REMARKS
BURLEY         PTCLDY    27  19  72 SW12      30.03R WCI  17
JEROME         CLEAR     24  20  84 SW9       30.03S WCI  14
TWIN FALLS     PTCLDY    26  19  74 S12       30.04S WCI  16
$$

IDZ019>023-290300-
SOUTHEAST IDAHO


CITY           SKY/WX    TMP DP  RH WIND       PRES   REMARKS
IDAHO FALLS    LGT SNOW  22  20  92 N3        30.02S FOG
POCATELLO      CLOUDY    27  24  89 W7        30.03R WCI  19
REXBURG        LGT SNOW  19  17  92 E7        30.02R FOG     WCI  10
$$

IDZ006-010-011-018-031-032-290300-
CENTRAL IDAHO MOUNTAINS


CITY           SKY/WX    TMP DP  RH WIND       PRES   REMARKS
MCCALL         MOCLDY    20  18  92 CALM      29.98R
STANLEY          N/A     10   4  76 SE5       29.95R WCI   2
SALMON         MOCLDY    18  14  86 CALM      30.03S
CHALLIS        MOCLDY    14  10  84 CALM      29.98R
$$

IDZ002-004-006-007-026-290300-
NORTHERN IDAHO


CITY           SKY/WX    TMP DP  RH WIND       PRES   REMARKS
LEWISTON       LGT RAIN  35  33  92 SE3       30.12S
LOWELL           N/A     32  31  96 CALM      30.13R
COEUR D`ALENE  CLOUDY    30  27  86 N9        30.09R WCI  22
MULLAN PASS    LGT SNOW  21  17  84 CALM      29.92R FOG
$$



USA.gov is the U.S. government's official web portal to all federal, state and local government web resources and services.